Tracking 30313 objects as of 22-Apr-2025
HD Live streaming from Space Station
objects crossing your sky now

THORAD DELTA 1 DEB

Track THORAD DELTA 1 DEB now!
10-day predictions


NORAD ID: 8163
Int'l Code: 1974-089AD
Perigee: 1,251.6 km
Apogee: 1,784.9 km
Inclination: 102.5 °
Period: 116.2 minutes
Semi major axis: 7889 km
RCS: 0.0599 m2 (small)
Launch date: November 15, 1974
Source: United States (US)
Launch site: AIR FORCE WESTERN TEST RANGE (AFWTR)

Note: This is SATELLITE DEBRIS
Your satellite tracking list
Your tracking list is empty




NASA's NSSDC Master Catalog

Two Line Element Set (TLE):
1  8163U 74089AD  25110.93606666  .00000390  00000-0  27147-2 0  9992
2  8163 102.5095 117.1820 0338011 106.8716 256.9694 12.38937289258869
Source of the keplerian elements: AFSPC